Location: Waco, TX
(31.5480°N, 97.1670°W)
Time: 13:28:11
(UTC-06:00)

ISS - All Passes

Search period start: 01 December 2021 00:00
Search period end: 11 December 2021 00:00
Orbit: 417 x 423 km, 51.6° (Epoch: 01 December)

Date Brightness Start Highest point End Pass type
(mag) Time Alt. Az. Time Alt. Az. Time Alt. Az.
01 Dec - 13:00:51 10° SW 13:04:11 62° SE 13:07:32 10° NE daylight
01 Dec - 14:39:39 10° WNW 14:41:18 13° NNW 14:42:56 10° N daylight
01 Dec - 21:10:40 10° NW 21:14:04 82° NE 21:17:26 10° SE night (unlit)
02 Dec - 12:14:04 10° SSW 12:17:05 31° SE 12:20:06 10° ENE daylight
02 Dec - 13:51:21 10° W 13:53:55 20° NW 13:56:31 10° NNE daylight
02 Dec - 20:23:37 10° NNW 20:26:52 41° NE 20:30:05 10° ESE night (unlit)
02 Dec - 22:01:48 10° W 22:03:22 13° SW 22:04:56 10° SSW night (unlit)
03 Dec - 11:27:49 10° SSE 11:30:02 16° SE 11:32:14 10° E daylight
03 Dec - 13:03:32 10° WSW 13:06:37 33° NW 13:09:43 10° NNE daylight
03 Dec - 19:36:45 10° NNW 19:39:35 24° NE 19:42:23 10° E visible
03 Dec - 21:13:33 10° WNW 21:16:19 24° SW 21:19:05 10° S night (unlit)
04 Dec - 12:16:02 10° SW 12:19:22 62° NW 12:22:44 10° NE daylight
04 Dec - 18:50:08 10° N 18:52:13 15° NE 18:54:19 10° ENE visible
04 Dec - 20:25:57 10° WNW 20:29:13 46° SW 20:32:28 10° SSE night (unlit)
05 Dec - 11:28:51 10° SW 11:32:11 65° SE 11:35:32 10° NE daylight
05 Dec - 13:07:45 10° WNW 13:09:18 13° NNW 13:10:52 10° N daylight
05 Dec - 19:38:40 10° NW 19:42:03 85° NE 19:45:25 10° SE visible
06 Dec - 10:42:01 10° SSW 10:45:03 32° SE 10:48:06 10° ENE daylight
06 Dec - 12:19:22 10° W 12:21:54 19° NW 12:24:26 10° NNE daylight
06 Dec - 18:51:33 10° NNW 18:54:49 43° NE 18:58:03 10° ESE visible
06 Dec - 20:29:51 10° W 20:31:18 12° SW 20:32:46 10° SSW visible
07 Dec - 09:55:41 10° S 09:57:57 17° SE 10:00:13 10° E daylight
07 Dec - 11:31:30 10° WSW 11:34:33 32° NW 11:37:38 10° NNE daylight
07 Dec - 18:04:39 10° NNW 18:07:30 25° NE 18:10:21 10° E visible
07 Dec - 19:41:30 10° WNW 19:44:14 23° SW 19:46:58 10° S visible
08 Dec - 10:43:57 10° SW 10:47:17 60° NW 10:50:37 10° NE daylight
08 Dec - 17:17:59 10° N 17:20:07 16° NE 17:22:15 10° ENE daylight
08 Dec - 18:53:51 10° WNW 18:57:06 44° SW 19:00:20 10° SSE visible
09 Dec - 09:56:43 10° SW 10:00:02 68° SE 10:03:24 10° NE daylight
09 Dec - 11:35:43 10° WNW 11:37:11 12° NNW 11:38:39 10° N daylight
09 Dec - 16:32:11 10° NNE 16:32:39 10° NNE 16:33:07 10° NE daylight
09 Dec - 18:06:30 10° NW 18:09:54 88° NE 18:13:17 10° SE visible
10 Dec - 09:09:49 10° SSW 09:12:52 33° SE 09:15:56 10° ENE daylight
10 Dec - 10:47:15 10° W 10:49:44 19° NW 10:52:14 10° NNE daylight
10 Dec - 17:19:22 10° NNW 17:22:38 44° NE 17:25:53 10° ESE daylight
10 Dec - 18:57:46 10° WSW 18:59:07 12° SW 19:00:27 10° SSW visible
